TimeMDT,TemperatureF,Dew PointF,Humidity,Sea Level PressureIn,VisibilityMPH,Wind Direction,Wind SpeedMPH,Gust SpeedMPH,PrecipitationIn,Events,Conditions,WindDirDegrees,DateUTC
12:41 AM,32.0,24.8,75,29.79,10.0,WNW,11.5,-,N/A,,Overcast,300,2013-04-30 06:41:00
12:56 AM,32.0,25.0,75,29.85,10.0,WNW,8.1,-,0.00,Snow,Light Snow,300,2013-04-30 06:56:00
1:56 AM,30.0,27.0,88,29.89,5.0,West,6.9,-,0.00,,Overcast,260,2013-04-30 07:56:00
2:16 AM,30.2,28.4,93,29.81,8.0,West,8.1,-,0.00,,Overcast,260,2013-04-30 08:16:00
2:27 AM,30.2,28.4,93,29.81,1.8,West,6.9,-,0.00,Snow,Light Snow,260,2013-04-30 08:27:00
2:35 AM,30.2,28.4,93,29.81,1.5,West,6.9,-,0.00,Snow,Light Snow,270,2013-04-30 08:35:00
2:56 AM,30.0,28.0,92,29.88,1.0,WNW,11.5,-,0.00,Snow,Light Snow,290,2013-04-30 08:56:00
3:08 AM,30.2,26.6,86,29.82,1.2,WNW,11.5,-,0.00,,Mist,290,2013-04-30 09:08:00
3:33 AM,28.4,26.6,93,29.83,0.8,NNW,13.8,-,0.00,Snow,Light Snow,340,2013-04-30 09:33:00
3:40 AM,26.6,24.8,93,29.83,0.8,NNW,18.4,-,0.00,Snow,Light Snow,340,2013-04-30 09:40:00
3:56 AM,27.0,25.0,92,29.89,0.8,NNW,19.6,-,0.00,Snow,Light Snow,330,2013-04-30 09:56:00
4:07 AM,26.6,24.8,93,29.84,1.5,NNW,16.1,-,0.00,Snow,Light Snow,340,2013-04-30 10:07:00
4:11 AM,26.6,23.0,86,29.84,2.0,NNW,15.0,-,0.00,Snow,Light Snow,330,2013-04-30 10:11:00
4:18 AM,26.6,23.0,86,29.84,4.0,NW,11.5,-,0.00,,Overcast,310,2013-04-30 10:18:00
4:39 AM,26.6,23.0,86,29.84,10.0,WNW,10.4,-,0.00,,Overcast,290,2013-04-30 10:39:00
4:56 AM,28.0,21.0,75,29.91,10.0,NW,13.8,-,0.00,,Overcast,310,2013-04-30 10:56:00
5:56 AM,27.0,21.9,81,29.95,10.0,NW,17.3,-,N/A,,Overcast,320,2013-04-30 11:56:00
6:56 AM,27.0,21.0,78,29.98,10.0,NNW,24.2,28.8,N/A,,Overcast,330,2013-04-30 12:56:00
7:44 AM,26.6,21.2,80,29.92,10.0,NNW,21.9,-,N/A,,Overcast,330,2013-04-30 13:44:00
7:56 AM,27.0,21.9,81,30.03,7.0,NNW,23.0,29.9,N/A,,Overcast,330,2013-04-30 13:56:00
8:12 AM,26.6,23.0,86,29.94,9.0,NNW,23.0,-,0.00,,Overcast,330,2013-04-30 14:12:00
8:40 AM,28.4,24.8,86,29.96,10.0,NNW,20.7,-,0.00,,Overcast,340,2013-04-30 14:40:00
8:51 AM,28.4,24.8,86,29.96,2.5,NNW,19.6,-,0.00,Snow,Light Snow,340,2013-04-30 14:51:00
8:56 AM,28.0,24.1,85,30.06,2.0,NNW,21.9,27.6,0.00,Snow,Light Snow,340,2013-04-30 14:56:00
9:04 AM,28.4,24.8,86,29.97,2.5,NNW,21.9,-,0.00,Snow,Light Snow,340,2013-04-30 15:04:00
9:13 AM,28.4,24.8,86,29.97,1.8,NNW,19.6,-,0.00,Snow,Light Snow,340,2013-04-30 15:13:00
9:17 AM,28.4,24.8,86,29.97,3.0,NNW,20.7,-,0.00,Snow,Light Snow,340,2013-04-30 15:17:00
9:51 AM,28.4,24.8,86,29.98,2.5,NNW,21.9,-,0.00,Snow,Light Snow,340,2013-04-30 15:51:00
9:56 AM,28.9,25.0,85,30.09,2.0,NNW,21.9,-,0.00,Snow,Light Snow,340,2013-04-30 15:56:00
10:14 AM,28.4,24.8,86,29.99,3.0,North,24.2,29.9,0.00,Snow,Light Snow,350,2013-04-30 16:14:00
10:56 AM,28.9,23.0,78,30.12,10.0,North,19.6,-,0.00,,Overcast,350,2013-04-30 16:56:00
11:19 AM,30.2,24.8,80,30.02,10.0,North,24.2,27.6,N/A,,Mostly Cloudy,350,2013-04-30 17:19:00
11:56 AM,30.0,24.1,79,30.14,10.0,North,20.7,-,N/A,,Mostly Cloudy,350,2013-04-30 17:56:00
12:56 PM,28.9,21.0,72,30.17,10.0,NNW,17.3,-,N/A,,Overcast,340,2013-04-30 18:56:00
1:56 PM,30.9,21.0,67,30.18,10.0,North,13.8,21.9,N/A,,Overcast,10,2013-04-30 19:56:00
2:56 PM,32.0,19.0,59,30.20,10.0,North,10.4,-,N/A,,Overcast,10,2013-04-30 20:56:00
3:25 PM,32.0,19.4,60,30.11,10.0,NNE,12.7,-,N/A,,Mostly Cloudy,20,2013-04-30 21:25:00
3:56 PM,33.1,19.0,56,30.22,10.0,North,10.4,-,N/A,,Overcast,360,2013-04-30 21:56:00
4:56 PM,32.0,19.0,59,30.24,10.0,North,13.8,-,N/A,,Overcast,10,2013-04-30 22:56:00
5:20 PM,32.0,19.4,60,30.14,10.0,North,11.5,-,N/A,,Overcast,10,2013-04-30 23:20:00
5:56 PM,32.0,19.9,61,30.26,10.0,North,8.1,-,N/A,,Overcast,10,2013-04-30 23:56:00
6:56 PM,30.9,19.9,64,30.28,10.0,NNW,6.9,-,N/A,,Overcast,340,2013-05-01 00:56:00
7:20 PM,30.2,19.4,64,30.18,10.0,NNE,5.8,-,N/A,,Scattered Clouds,20,2013-05-01 01:20:00
7:56 PM,30.0,19.0,64,30.30,10.0,NE,4.6,-,N/A,,Clear,40,2013-05-01 01:56:00
8:56 PM,27.0,19.0,72,30.33,10.0,NE,4.6,-,N/A,,Clear,40,2013-05-01 02:56:00
9:56 PM,26.1,19.0,75,30.35,10.0,Calm,Calm,-,N/A,,Mostly Cloudy,0,2013-05-01 03:56:00
10:56 PM,26.6,19.4,74,30.25,10.0,Calm,Calm,-,N/A,,Scattered Clouds,0,2013-05-01 04:56:00
11:56 PM,24.1,18.0,77,30.38,10.0,Calm,Calm,-,N/A,,Clear,0,2013-05-01 05:56:00